Time,TemperatureF,DewpointF,PressureIn,WindDirection,WindDirectionDegrees,WindSpeedMPH,WindSpeedGustMPH,Humidity,HourlyPrecipIn,Conditions,Clouds,dailyrainin,SoftwareType,DateUTC
2013-03-07 00:02:00,33.0,33.0,30.22,NNW,328,7.0,0.0,99,0.03,,,-99.99,,2013-03-07 05:02:00,
2013-03-07 00:12:00,33.0,33.0,30.22,NNW,328,7.0,0.0,99,0.03,,,-99.99,,2013-03-07 05:12:00,
2013-03-07 00:22:00,33.0,33.0,30.21,NW,316,7.0,0.0,99,0.03,,,-99.99,,2013-03-07 05:22:00,
2013-03-07 00:32:00,33.0,33.0,30.21,NNW,338,7.0,0.0,100,0.03,,,-99.99,,2013-03-07 05:32:00,
2013-03-07 00:42:00,33.0,33.0,30.21,NNW,338,7.0,0.0,100,0.03,,,-99.99,,2013-03-07 05:42:00,
2013-03-07 00:52:00,33.0,33.0,30.21,NNW,343,8.0,0.0,100,0.03,,,-99.99,,2013-03-07 05:52:00,
2013-03-07 01:02:00,33.0,33.0,30.21,NW,326,10.0,0.0,100,0.03,,,-99.99,,2013-03-07 06:02:00,
2013-03-07 01:11:00,33.0,33.0,30.21,NW,326,10.0,0.0,100,0.03,,,-99.99,,2013-03-07 06:11:00,
2013-03-07 01:21:00,33.0,33.0,30.22,NW,325,10.0,0.0,100,0.03,,,-99.99,,2013-03-07 06:21:00,
2013-03-07 01:32:00,32.0,32.0,30.22,NNW,330,9.0,0.0,100,0.03,,,-99.99,,2013-03-07 06:32:00,
2013-03-07 01:42:00,32.0,32.0,30.22,NNW,330,9.0,0.0,100,0.03,,,-99.99,,2013-03-07 06:42:00,
2013-03-07 01:52:00,32.0,32.0,30.22,NNW,329,8.0,0.0,100,0.03,,,-99.99,,2013-03-07 06:52:00,
2013-03-07 02:02:00,32.0,32.0,30.22,North,0,7.0,0.0,100,0.03,,,-99.99,,2013-03-07 07:02:00,
2013-03-07 02:11:00,32.0,32.0,30.22,North,0,7.0,0.0,100,0.03,,,-99.99,,2013-03-07 07:11:00,
2013-03-07 02:21:00,32.0,32.0,30.22,North,3,8.0,0.0,100,0.03,,,-99.99,,2013-03-07 07:21:00,
2013-03-07 02:32:00,32.0,32.0,30.23,NNW,328,7.0,0.0,100,0.03,,,-99.99,,2013-03-07 07:32:00,
2013-03-07 02:43:00,32.0,32.0,30.23,NNW,328,7.0,0.0,100,0.03,,,-99.99,,2013-03-07 07:43:00,
2013-03-07 02:53:00,32.0,32.0,30.23,NW,323,9.0,0.0,100,0.03,,,-99.99,,2013-03-07 07:53:00,
2013-03-07 03:03:00,32.0,32.0,30.23,NNW,336,8.0,0.0,100,0.03,,,-99.99,,2013-03-07 08:03:00,
2013-03-07 03:12:00,32.0,32.0,30.23,NNW,336,8.0,0.0,100,0.03,,,-99.99,,2013-03-07 08:12:00,
2013-03-07 03:23:00,32.0,32.0,30.23,NW,322,9.0,0.0,100,0.03,,,-99.99,,2013-03-07 08:23:00,
2013-03-07 03:33:00,32.0,32.0,30.23,NW,322,9.0,0.0,100,0.03,,,-99.99,,2013-03-07 08:33:00,
2013-03-07 03:44:00,32.0,32.0,30.23,NW,322,9.0,0.0,100,0.03,,,-99.99,,2013-03-07 08:44:00,
2013-03-07 03:53:00,32.0,32.0,30.23,NW,309,10.0,0.0,100,0.03,,,-99.99,,2013-03-07 08:53:00,
2013-03-07 04:03:00,32.0,32.0,30.23,NW,309,10.0,0.0,100,0.03,,,-99.99,,2013-03-07 09:03:00,
2013-03-07 04:14:00,32.0,32.0,30.23,NW,309,10.0,0.0,100,0.03,,,-99.99,,2013-03-07 09:14:00,
2013-03-07 04:24:00,32.0,32.0,30.24,NNW,335,9.0,0.0,100,0.03,,,-99.99,,2013-03-07 09:24:00,
2013-03-07 04:33:00,32.0,32.0,30.25,NNW,346,9.0,0.0,100,0.03,,,-99.99,,2013-03-07 09:33:00,
2013-03-07 04:43:00,32.0,32.0,30.25,NNW,346,9.0,0.0,100,0.03,,,-99.99,,2013-03-07 09:43:00,
2013-03-07 04:53:00,32.0,32.0,30.25,NNW,332,9.0,0.0,100,0.03,,,-99.99,,2013-03-07 09:53:00,
2013-03-07 05:03:00,31.0,31.0,30.26,NNW,332,9.0,0.0,100,0.03,,,-99.99,,2013-03-07 10:03:00,
2013-03-07 05:13:00,31.0,31.0,30.26,NNW,332,9.0,0.0,100,0.03,,,-99.99,,2013-03-07 10:13:00,
2013-03-07 05:24:00,31.0,31.0,30.26,North,352,9.0,0.0,100,0.03,,,-99.99,,2013-03-07 10:24:00,
2013-03-07 05:33:00,31.0,31.0,30.27,NNW,346,10.0,0.0,100,0.03,,,-99.99,,2013-03-07 10:33:00,
2013-03-07 05:43:00,31.0,31.0,30.27,NNW,346,10.0,0.0,100,0.03,,,-99.99,,2013-03-07 10:43:00,
2013-03-07 05:53:00,31.0,31.0,30.27,North,8,10.0,0.0,98,0.03,,,-99.99,,2013-03-07 10:53:00,
2013-03-07 06:03:00,30.0,29.0,30.28,North,3,10.0,0.0,96,0.03,,,-99.99,,2013-03-07 11:03:00,
2013-03-07 06:12:00,30.0,29.0,30.28,North,3,10.0,0.0,96,0.03,,,-99.99,,2013-03-07 11:12:00,
2013-03-07 06:23:00,30.0,29.0,30.28,North,3,10.0,0.0,96,0.03,,,-99.99,,2013-03-07 11:23:00,
2013-03-07 06:33:00,30.0,29.0,30.28,North,3,10.0,0.0,96,0.03,,,-99.99,,2013-03-07 11:33:00,
2013-03-07 06:43:00,30.0,29.0,30.28,North,3,10.0,0.0,96,0.03,,,-99.99,,2013-03-07 11:43:00,
2013-03-07 06:55:00,30.0,29.0,30.28,North,349,10.0,0.0,96,0.03,,,-99.99,,2013-03-07 11:55:00,
2013-03-07 07:04:00,29.0,28.0,30.29,North,0,10.0,0.0,96,0.03,,,-99.99,,2013-03-07 12:04:00,
2013-03-07 07:12:00,29.0,28.0,30.29,North,0,10.0,0.0,96,0.03,,,-99.99,,2013-03-07 12:12:00,
2013-03-07 07:23:00,29.0,28.0,30.29,North,0,10.0,0.0,96,0.03,,,-99.99,,2013-03-07 12:23:00,
2013-03-07 07:33:00,29.0,28.0,30.30,North,353,7.0,0.0,97,0.03,,,-99.99,,2013-03-07 12:33:00,
2013-03-07 07:43:00,29.0,28.0,30.30,North,353,7.0,0.0,97,0.03,,,-99.99,,2013-03-07 12:43:00,
2013-03-07 07:53:00,29.0,28.0,30.31,North,356,6.0,0.0,97,0.03,,,-99.99,,2013-03-07 12:53:00,
2013-03-07 08:03:00,28.0,27.0,30.31,NNE,14,6.0,0.0,97,0.03,,,-99.99,,2013-03-07 13:03:00,
2013-03-07 08:12:00,28.0,27.0,30.31,NNE,14,6.0,0.0,97,0.03,,,-99.99,,2013-03-07 13:12:00,
2013-03-07 08:22:00,28.0,27.0,30.31,NNE,14,6.0,0.0,97,0.03,,,-99.99,,2013-03-07 13:22:00,
2013-03-07 08:32:00,29.0,28.0,30.32,NE,48,2.0,0.0,97,0.03,,,-99.99,,2013-03-07 13:32:00,
2013-03-07 08:42:00,29.0,28.0,30.32,NE,48,2.0,0.0,97,0.03,,,-99.99,,2013-03-07 13:42:00,
2013-03-07 08:53:00,30.0,29.0,30.34,NW,322,9.0,0.0,97,0.03,,,-99.99,,2013-03-07 13:53:00,
2013-03-07 09:02:00,30.0,29.0,30.34,North,6,8.0,0.0,96,0.03,,,-99.99,,2013-03-07 14:02:00,
2013-03-07 09:12:00,30.0,29.0,30.34,North,6,8.0,0.0,96,0.03,,,-99.99,,2013-03-07 14:12:00,
2013-03-07 09:23:00,30.0,28.0,30.34,North,359,11.0,0.0,93,0.03,,,-99.99,,2013-03-07 14:23:00,
2013-03-07 09:33:00,30.0,28.0,30.34,North,359,11.0,0.0,93,0.03,,,-99.99,,2013-03-07 14:33:00,
2013-03-07 09:42:00,30.0,28.0,30.34,North,359,11.0,0.0,93,0.03,,,-99.99,,2013-03-07 14:42:00,
2013-03-07 09:54:00,31.0,28.0,30.33,NNE,17,8.0,0.0,88,0.03,,,-99.99,,2013-03-07 14:54:00,
2013-03-07 10:03:00,31.0,28.0,30.33,NNE,17,8.0,0.0,88,0.03,,,-99.99,,2013-03-07 15:03:00,
2013-03-07 10:12:00,31.0,28.0,30.33,NNE,17,8.0,0.0,88,0.03,,,-99.99,,2013-03-07 15:12:00,
2013-03-07 10:23:00,32.0,27.0,30.35,North,356,10.0,0.0,80,0.03,,,-99.99,,2013-03-07 15:23:00,
2013-03-07 10:33:00,32.0,27.0,30.35,North,356,10.0,0.0,80,0.03,,,-99.99,,2013-03-07 15:33:00,
2013-03-07 10:43:00,32.0,27.0,30.35,North,356,10.0,0.0,80,0.03,,,-99.99,,2013-03-07 15:43:00,
2013-03-07 10:53:00,32.0,25.0,30.35,North,1,14.0,0.0,76,0.03,,,-99.99,,2013-03-07 15:53:00,
2013-03-07 11:13:00,33.0,25.0,30.35,NW,326,12.0,0.0,73,0.03,,,-99.99,,2013-03-07 16:13:00,
2013-03-07 11:24:00,33.0,25.0,30.35,NNW,336,11.0,0.0,73,0.03,,,-99.99,,2013-03-07 16:24:00,
2013-03-07 11:33:00,33.0,25.0,30.35,NNW,335,13.0,0.0,72,0.03,,,-99.99,,2013-03-07 16:33:00,
2013-03-07 11:43:00,33.0,25.0,30.35,NNW,335,13.0,0.0,72,0.03,,,-99.99,,2013-03-07 16:43:00,
2013-03-07 11:53:00,33.0,25.0,30.35,NNW,336,12.0,0.0,73,0.03,,,-99.99,,2013-03-07 16:53:00,
2013-03-07 12:02:00,33.0,25.0,30.35,NNW,330,14.0,0.0,72,0.03,,,-99.99,,2013-03-07 17:02:00,
2013-03-07 12:12:00,33.0,25.0,30.35,NNW,330,14.0,0.0,72,0.03,,,-99.99,,2013-03-07 17:12:00,
2013-03-07 12:23:00,33.0,25.0,30.35,North,1,12.0,0.0,72,0.03,,,-99.99,,2013-03-07 17:23:00,
2013-03-07 12:33:00,33.0,25.0,30.35,North,1,12.0,0.0,72,0.03,,,-99.99,,2013-03-07 17:33:00,
2013-03-07 12:43:00,33.0,25.0,30.35,North,1,12.0,0.0,72,0.03,,,-99.99,,2013-03-07 17:43:00,
2013-03-07 12:53:00,33.0,24.0,30.35,NNW,340,10.0,0.0,70,0.03,,,-99.99,,2013-03-07 17:53:00,
2013-03-07 13:04:00,33.0,24.0,30.35,NNW,340,10.0,0.0,70,0.03,,,-99.99,,2013-03-07 18:04:00,
2013-03-07 13:13:00,33.0,24.0,30.35,NNW,340,10.0,0.0,70,0.03,,,-99.99,,2013-03-07 18:13:00,
2013-03-07 13:22:00,34.0,25.0,30.34,NW,323,8.0,0.0,70,0.03,,,-99.99,,2013-03-07 18:22:00,
2013-03-07 13:43:00,34.0,25.0,30.34,North,349,10.0,0.0,70,0.03,,,-99.99,,2013-03-07 18:43:00,
2013-03-07 13:53:00,35.0,26.0,30.34,NW,322,8.0,0.0,69,0.03,,,-99.99,,2013-03-07 18:53:00,
2013-03-07 14:03:00,35.0,26.0,30.34,NW,322,8.0,0.0,69,0.03,,,-99.99,,2013-03-07 19:03:00,
2013-03-07 14:12:00,35.0,26.0,30.34,NW,322,8.0,0.0,69,0.03,,,-99.99,,2013-03-07 19:12:00,
2013-03-07 14:35:00,35.0,26.0,30.34,NNW,333,13.0,0.0,68,0.03,,,-99.99,,2013-03-07 19:35:00,
2013-03-07 14:44:00,35.0,26.0,30.34,NNW,333,13.0,0.0,68,0.03,,,-99.99,,2013-03-07 19:44:00,
2013-03-07 14:53:00,35.0,26.0,30.34,NNW,333,13.0,0.0,68,0.03,,,-99.99,,2013-03-07 19:53:00,
2013-03-07 15:02:00,34.0,25.0,30.34,NNW,328,6.0,0.0,68,0.03,,,-99.99,,2013-03-07 20:02:00,
2013-03-07 15:14:00,34.0,25.0,30.34,NNW,328,6.0,0.0,68,0.03,,,-99.99,,2013-03-07 20:14:00,
2013-03-07 15:22:00,34.0,25.0,30.34,NNW,328,6.0,0.0,68,0.03,,,-99.99,,2013-03-07 20:22:00,
2013-03-07 15:34:00,34.0,25.0,30.34,North,4,8.0,0.0,69,0.03,,,-99.99,,2013-03-07 20:34:00,
2013-03-07 15:43:00,34.0,25.0,30.34,North,4,8.0,0.0,69,0.03,,,-99.99,,2013-03-07 20:43:00,
2013-03-07 15:54:00,34.0,25.0,30.34,North,4,8.0,0.0,69,0.03,,,-99.99,,2013-03-07 20:54:00,
2013-03-07 16:03:00,35.0,26.0,30.34,NW,321,9.0,0.0,68,0.03,,,-99.99,,2013-03-07 21:03:00,
2013-03-07 16:12:00,35.0,26.0,30.34,NW,321,9.0,0.0,68,0.03,,,-99.99,,2013-03-07 21:12:00,
2013-03-07 16:20:00,35.0,25.0,30.34,NNW,329,9.0,0.0,66,0.03,,,-99.99,,2013-03-07 21:20:00,
2013-03-07 16:23:00,34.0,25.0,30.34,North,8,7.0,0.0,69,0.03,,,-99.99,,2013-03-07 21:23:00,
2013-03-07 16:33:00,35.0,25.0,30.34,NNW,329,9.0,0.0,66,0.03,,,-99.99,,2013-03-07 21:33:00,
2013-03-07 16:43:00,35.0,25.0,30.34,NNW,329,9.0,0.0,66,0.03,,,-99.99,,2013-03-07 21:43:00,
2013-03-07 16:53:00,35.0,25.0,30.34,NNW,329,9.0,0.0,66,0.03,,,-99.99,,2013-03-07 21:53:00,
2013-03-07 17:02:00,35.0,25.0,30.34,NNW,329,9.0,0.0,66,0.03,,,-99.99,,2013-03-07 22:02:00,
2013-03-07 17:12:00,35.0,25.0,30.34,NNW,329,9.0,0.0,66,0.03,,,-99.99,,2013-03-07 22:12:00,
2013-03-07 18:22:00,33.0,24.0,30.35,NW,318,9.0,0.0,69,0.03,,,-99.99,,2013-03-07 23:22:00,
2013-03-07 18:44:00,33.0,24.0,30.35,NW,318,9.0,0.0,69,0.03,,,-99.99,,2013-03-07 23:44:00,
2013-03-07 18:54:00,33.0,24.0,30.37,NNW,335,10.0,0.0,70,0.03,,,-99.99,,2013-03-07 23:54:00,
2013-03-07 19:04:00,32.0,24.0,30.37,NNW,338,9.0,0.0,72,0.03,,,-99.99,,2013-03-08 00:04:00,
2013-03-07 19:23:00,31.0,23.0,30.37,NNW,336,8.0,0.0,73,0.03,,,-99.99,,2013-03-08 00:23:00,
2013-03-07 19:34:00,31.0,24.0,30.37,North,350,10.0,0.0,75,0.03,,,-99.99,,2013-03-08 00:34:00,
2013-03-07 19:44:00,31.0,24.0,30.37,North,350,10.0,0.0,75,0.03,,,-99.99,,2013-03-08 00:44:00,
2013-03-07 19:54:00,31.0,24.0,30.37,North,350,10.0,0.0,75,0.03,,,-99.99,,2013-03-08 00:54:00,
2013-03-07 20:02:00,30.0,24.0,30.38,NNW,338,7.0,0.0,77,0.03,,,-99.99,,2013-03-08 01:02:00,
2013-03-07 20:11:00,30.0,24.0,30.38,NNW,338,7.0,0.0,77,0.03,,,-99.99,,2013-03-08 01:11:00,
2013-03-07 20:22:00,30.0,24.0,30.38,NW,326,6.0,0.0,78,0.03,,,-99.99,,2013-03-08 01:22:00,
2013-03-07 20:33:00,29.0,24.0,30.39,NW,325,6.0,0.0,80,0.03,,,-99.99,,2013-03-08 01:33:00,
2013-03-07 20:42:00,29.0,24.0,30.39,NW,325,6.0,0.0,80,0.03,,,-99.99,,2013-03-08 01:42:00,
2013-03-07 20:52:00,29.0,24.0,30.39,NW,325,6.0,0.0,80,0.03,,,-99.99,,2013-03-08 01:52:00,
2013-03-07 21:02:00,28.0,23.0,30.39,NNW,342,7.0,0.0,82,0.03,,,-99.99,,2013-03-08 02:02:00,
2013-03-07 21:12:00,28.0,23.0,30.39,NNW,342,7.0,0.0,82,0.03,,,-99.99,,2013-03-08 02:12:00,
2013-03-07 21:22:00,28.0,23.0,30.39,NNW,336,6.0,0.0,82,0.03,,,-99.99,,2013-03-08 02:22:00,
2013-03-07 21:32:00,28.0,23.0,30.39,NW,321,5.0,0.0,82,0.03,,,-99.99,,2013-03-08 02:32:00,
2013-03-07 21:42:00,28.0,23.0,30.39,NW,321,5.0,0.0,82,0.03,,,-99.99,,2013-03-08 02:42:00,
2013-03-07 21:53:00,27.0,23.0,30.39,NNW,335,0.0,0.0,83,0.03,,,-99.99,,2013-03-08 02:53:00,
2013-03-07 22:02:00,27.0,23.0,30.39,NNW,335,0.0,0.0,83,0.03,,,-99.99,,2013-03-08 03:02:00,
2013-03-07 22:12:00,27.0,23.0,30.39,NNW,335,0.0,0.0,83,0.03,,,-99.99,,2013-03-08 03:12:00,
2013-03-07 22:22:00,26.0,22.0,30.39,NNW,335,0.0,0.0,85,0.03,,,-99.99,,2013-03-08 03:22:00,
2013-03-07 22:32:00,26.0,22.0,30.39,NNW,335,0.0,0.0,85,0.03,,,-99.99,,2013-03-08 03:32:00,
2013-03-07 22:43:00,26.0,22.0,30.39,NNW,335,0.0,0.0,85,0.03,,,-99.99,,2013-03-08 03:43:00,
2013-03-07 22:53:00,25.0,22.0,30.39,NNW,335,0.0,0.0,87,0.03,,,-99.99,,2013-03-08 03:53:00,
2013-03-07 23:02:00,25.0,22.0,30.39,NNW,335,0.0,0.0,89,0.03,,,-99.99,,2013-03-08 04:02:00,
2013-03-07 23:12:00,25.0,22.0,30.39,NNW,335,0.0,0.0,89,0.03,,,-99.99,,2013-03-08 04:12:00,
2013-03-07 23:22:00,24.0,22.0,30.39,NNW,335,0.0,0.0,91,0.03,,,-99.99,,2013-03-08 04:22:00,
2013-03-07 23:32:00,23.0,21.0,30.39,NNW,335,0.0,0.0,92,0.03,,,-99.99,,2013-03-08 04:32:00,
2013-03-07 23:42:00,23.0,21.0,30.39,NNW,335,0.0,0.0,92,0.03,,,-99.99,,2013-03-08 04:42:00,
2013-03-07 23:52:00,23.0,21.0,30.39,NNW,335,0.0,0.0,93,0.03,,,-99.99,,2013-03-08 04:52:00,